Location: Clanezzo
(45.7500°N, 9.6000°E)
Time: 06:24:23
(UTC+00:00)

Gbstr 26 Del rocket - Pass Details

Date: 29 September 2021
Orbit: 492 x 1263 km, 51.8° (Epoch: 20 October)

Event Time Altitude Azimuth Distance (km) Brightness Sun altitude
Rises 17:23:47 0° 196° (SSW) 3,663 7.2 -4.0°
Reaches altitude 10° 17:26:34 10° 186° (S) 2,833 6.5 -4.5°
Maximum altitude 17:32:28 30° 128° (SE) 1,921 5.2 -5.5°
Drops below altitude 10° 17:39:03 10° 71° (ENE) 3,197 6.1 -6.7°
Enters shadow 17:41:20 - 64° (ENE) 3,885 6.6 -7.1°
